Probability
0 0 0 0 0 0 0 0 1 3 5 7 9 14 20 26 30 33 41 50 57 62 65 64 58 52 50 51 52 50 46 42 42 43 41 37 36 36 37 37 39 42 41 40
0 0 0 0 0 0 0 0 1 3 6 9 12 18 25 31 33 34 39 46 54 60 61 62 58 52 50 52 55 54 49 43 42 43 42 38 36 35 35 35 36 39 41 40
0 0 0 1 1 0 1 2 3 4 7 12 19 26 33 39 38 37 38 45 53 57 58 59 58 53 50 50 53 52 48 43 41 41 41 39 35 33 32 32 33 35 37 38
0 0 0 1 2 2 3 6 7 6 9 17 27 34 39 42 42 41 43 49 55 55 54 55 55 53 49 46 46 44 42 41 40 38 37 35 32 30 30 30 31 32 33 34
3 1 1 2 4 4 6 8 10 11 16 24 31 36 40 43 45 47 50 54 56 54 52 52 51 49 46 42 39 38 38 38 38 35 33 32 30 30 30 31 32 31 31 31
8 4 3 5 6 5 8 13 17 22 28 32 34 37 41 46 50 52 53 53 53 53 51 50 48 45 42 39 38 38 38 38 36 32 31 30 29 29 31 34 35 33 31 31
9 6 5 8 9 12 21 30 34 38 42 43 42 43 46 52 56 54 50 48 47 48 48 47 45 44 42 40 39 38 39 37 33 30 29 29 30 30 32 34 34 33 32 31
7 9 13 16 19 28 43 52 49 47 49 48 47 47 51 57 59 55 49 45 42 42 43 42 43 45 43 40 39 37 36 33 29 27 26 27 30 32 33 34 33 32 31 31
12 17 23 27 31 40 53 58 52 46 45 46 46 47 52 57 57 52 47 43 39 38 38 39 42 43 41 40 38 35 32 30 28 26 25 26 28 29 30 30 30 30 29 28
19 22 26 30 33 39 47 53 49 42 40 42 42 45 48 51 50 47 41 36 34 33 34 35 36 37 38 38 37 34 30 30 29 27 25 24 23 22 22 22 23 24 24 22
21 21 22 25 29 33 41 47 47 42 40 39 39 41 42 42 41 39 34 29 27 27 28 28 29 30 32 34 34 32 30 29 29 28 24 20 17 14 12 12 13 14 15 13
20 19 19 21 24 28 35 42 44 43 41 39 38 37 36 35 34 33 28 24 22 21 21 22 23 23 25 27 30 31 30 28 27 26 23 17 13 10 7 5 4 5 6 6
19 18 17 19 21 23 29 36 40 40 39 38 34 30 28 28 27 25 22 19 18 17 18 21 21 21 22 22 26 29 30 28 25 22 18 14 12 10 7 4 2 1 1 1
15 15 15 17 19 20 25 30 32 33 32 30 26 22 21 20 18 16 15 14 14 14 17 19 19 20 20 20 21 24 24 22 19 16 13 12 12 11 9 7 4 2 1 0
11 12 13 13 16 20 21 23 25 24 23 21 18 15 14 13 11 10 10 10 10 11 12 14 15 17 17 16 15 14 12 11 10 10 10 11 11 11 9 7 5 3 1 0
7 8 9 9 11 15 15 16 18 18 17 16 12 9 8 7 6 6 6 6 6 7 8 11 13 14 13 11 8 5 3 3 3 5 6 7 7 7 6 6 5 3 1 0
3 3 3 4 6 8 9 10 13 14 13 11 9 7 5 4 3 2 2 2 3 4 6 9 10 11 10 7 5 3 2 2 1 2 2 2 2 3 4 6 6 3 1 0
1 0 0 1 2 4 6 7 9 10 9 7 6 5 4 3 2 1 1 0 1 2 3 4 5 6 5 4 4 4 4 2 1 0 0 0 0 2 4 5 5 3 1 0
0 0 0 1 3 5 6 6 6 6 5 3 2 3 3 2 1 1 1 0 0 1 1 1 1 1 1 1 2 3 3 2 0 0 0 1 1 2 3 4 3 1 0 0
0 0 0 1 2 4 5 5 4 4 3 2 1 1 1 1 0 1 1 0 0 0 0 0 0 0 0 0 1 2 2 2 1 0 1 2 2 3 3 3 2 1 0 0
0 0 0 1 1 1 3 3 3 2 1 1 0 0 0 0 0 0 0 0 0 0 0 0 0 0 0 0 0 1 2 2 1 0 2 3 3 3 3 2 1 0 0 0
1 1 1 0 0 1 1 1 1 1 0 0 0 0 0 0 0 0 0 0 0 0 0 0 0 0 0 0 0 0 1 1 0 0 1 2 2 2 1 1 0 0 0 0
2 2 2 1 1 1 1 0 0 0 0 0 0 0 0 0 0 0 0 0 0 0 0 0 0 0 0 0 0 0 0 0 0 0 0 1 1 1 0 0 0 0 0 0
1 1 2 2 2 1 1 0 0 0 0 0 0 0 0 0 0 0 0 0 0 0 0 0 0 0 0 0 0 0 0 0 0 0 0 0 0 0 0 0 0 0 0 0
2 1 2 2 2 0 0 0 0 0 0 0 0 0 0 0 0 0 0 0 0 0 0 0 0 0 0 0 0 0 0 0 0 0 0 0 0 0 0 0 0 0 0 0
2 2 2 2 1 0 0 0 0 0 0 0 0 0 0 0 0 0 0 0 0 0 0 0 0 0 0 0 0 0 0 0 0 0 0 0 0 0 0 0 0 0 0 0
1 1 1 1 1 0 0 0 0 0 0 0 0 0 0 0 0 0 0 0 0 0 0 0 0 0 0 0 0 0 0 0 0 0 0 0 0 0 0 0 0 0 0 0
Wind_Speed
13 13 13 15 17 18 18 17 15 11 9 9 8 7 8 8 8 10 11 10 10 9 8 8 8 7 8 8 7 7 8 7 7 7 7 7 6 7 7 7 8 7 7 7
14 15 15 15 16 17 18 17 17 13 9 6 6 7 9 9 7 8 10 11 11 10 9 8 8 7 7 7 7 7 7 7 6 6 6 6 6 6 6 6 6 6 7 7
12 13 14 15 16 16 16 16 15 12 7 4 5 7 8 9 9 9 9 10 11 10 9 8 8 7 6 6 6 6 6 6 6 6 6 6 6 5 6 6 6 7 7 7
11 11 14 11 9 10 11 10 10 9 6 5 4 4 6 7 7 8 10 10 10 9 9 8 7 7 6 6 6 6 6 6 6 6 6 6 6 6 6 5 5 5 6 6
10 11 12 10 8 9 8 7 8 7 5 6 7 5 3 4 6 6 7 8 8 9 9 7 7 6 6 6 6 6 6 5 5 6 6 6 6 6 5 5 5 5 5 6
10 11 10 6 6 7 7 7 5 5 6 7 9 6 5 6 6 7 7 6 6 7 8 7 5 5 4 5 5 5 5 5 4 4 4 5 5 5 5 5 5 5 5 6
13 11 6 5 7 6 8 4 2 3 5 7 4 4 7 8 8 8 8 7 7 7 7 5 4 4 3 3 3 3 3 3 3 3 3 3 3 4 4 4 4 4 4 3
11 10 6 4 3 2 3 4 3 5 7 9 9 9 9 9 9 8 7 8 8 7 6 5 4 4 3 2 1 1 2 2 2 2 2 3 2 2 3 3 3 3 2 2
3 2 3 5 4 5 5 4 4 6 8 10 10 9 10 10 9 8 8 7 7 7 7 5 4 4 3 2 2 2 2 2 2 2 1 2 2 2 1 1 2 2 2 2
1 3 5 5 5 5 5 5 6 8 9 9 10 11 10 9 8 8 7 7 7 7 6 6 5 4 4 3 2 3 3 3 3 3 3 4 3 2 2 1 1 1 1 2
2 3 4 4 6 6 6 8 9 9 10 10 10 11 10 8 8 7 7 7 7 6 6 6 5 5 4 3 3 3 3 3 3 4 4 5 6 5 4 5 3 2 2 2
1 2 3 3 4 6 8 9 10 11 11 11 11 11 10 9 8 8 8 7 8 7 7 6 6 6 5 4 3 3 3 3 3 3 4 4 5 7 12 10 11 12 10 7
2 4 5 4 5 7 9 10 10 10 10 11 11 11 10 9 9 9 9 9 8 8 7 6 6 6 5 4 4 4 4 4 3 3 3 3 4 5 6 7 12 13 12 11
3 4 6 5 5 7 10 11 11 11 11 11 11 11 10 10 10 10 9 9 9 9 8 7 7 7 5 5 5 5 5 4 4 3 3 3 4 4 4 5 5 6 8 10
2 4 6 6 7 8 9 10 11 11 11 12 11 11 11 11 10 10 9 9 9 9 9 8 8 7 5 5 6 6 4 4 3 3 4 4 4 4 5 5 6 6 5 6
4 6 8 8 8 9 10 10 10 10 10 11 11 11 11 11 11 11 10 10 10 9 8 8 7 6 5 5 6 5 5 7 5 4 5 5 5 5 5 6 6 6 6 5
5 6 7 8 8 9 9 9 9 9 10 11 12 12 11 11 11 11 11 10 10 9 8 7 7 6 6 6 5 5 5 6 7 6 5 6 6 6 6 6 6 7 6 7
6 6 6 7 8 9 10 10 10 10 10 10 11 11 11 11 11 10 9 10 10 11 10 8 7 7 7 7 5 5 6 6 6 6 6 6 6 6 7 7 8 8 6 7
7 8 8 9 9 9 10 10 10 10 10 10 11 11 11 11 10 10 9 10 11 10 9 9 9 8 8 8 7 6 7 8 7 7 7 8 8 8 7 8 7 7 7 6
9 9 10 11 11 10 10 10 10 10 10 10 11 11 11 11 10 10 11 11 8 7 7 8 8 8 7 7 7 7 8 8 8 7 7 7 8 8 7 7 7 7 7 7
10 10 10 10 11 10 9 9 10 10 10 10 10 11 11 11 10 9 9 9 8 7 7 8 7 6 6 5 7 7 7 8 8 7 8 7 7 7 7 7 7 7 6 6
9 9 10 10 10 9 8 9 10 11 10 10 11 11 11 11 11 11 10 8 7 8 7 7 7 8 7 7 7 7 8 8 8 7 7 7 7 7 7 7 7 6 6 6
9 9 10 10 10 10 11 10 10 10 11 11 11 11 10 9 8 8 9 7 8 9 8 8 9 10 9 7 8 8 9 9 8 8 8 7 7 7 7 8 7 7 6 6
10 9 10 10 11 12 12 11 10 10 11 11 10 9 8 8 8 8 8 8 9 9 8 8 10 10 9 8 8 8 8 8 8 8 7 7 7 8 8 8 8 7 7 8
10 10 10 10 10 9 10 10 10 9 10 9 10 10 8 7 8 8 8 9 8 8 8 8 9 9 8 8 8 9 9 8 8 8 8 8 8 8 8 8 7 7 7 7
9 9 8 8 7 6 7 7 7 7 8 8 8 8 8 7 8 7 6 8 9 7 7 7 7 8 8 8 9 9 9 8 8 8 9 8 9 8 8 8 9 7 7 7
9 8 6 7 7 6 7 7 7 8 8 8 8 7 7 7 7 7 7 7 7 8 7 7 7 8 8 9 9 9 8 8 8 8 8 7 7 7 7 8 7 7 7 7
Wind_Direction
255 261 237 227 226 222 224 227 233 230 210 190 195 173 150 141 144 147 143 140 138 141 142 146 148 152 158 167 172 176 177 188 192 192 193 196 196 198 199 202 206 205 207 208
248 248 253 240 226 224 225 227 235 235 233 197 171 156 145 146 156 148 144 146 142 144 148 150 151 157 159 166 168 169 179 187 186 188 190 192 195 196 198 204 210 205 206 209
254 242 244 240 227 221 221 224 227 233 230 175 167 157 151 153 156 158 153 149 149 150 152 151 154 157 161 160 162 171 181 183 182 185 190 194 197 195 204 207 210 214 211 212
249 249 244 241 247 239 228 224 221 223 199 180 166 146 145 147 145 149 144 144 145 148 151 153 152 155 162 162 167 172 178 183 181 187 193 193 195 199 204 207 210 215 215 214
252 243 245 246 243 239 231 230 229 212 179 152 141 128 113 112 113 123 123 130 138 145 146 145 149 155 162 167 172 176 181 186 187 190 194 196 200 202 203 206 214 217 218 218
250 245 241 244 247 244 223 213 223 179 165 163 160 165 139 116 111 112 106 108 120 126 128 132 137 145 163 171 176 186 187 186 188 194 200 206 205 202 204 207 216 220 222 224
241 249 252 292 297 259 213 193 150 132 142 149 140 108 113 111 114 110 109 111 112 111 112 114 121 134 163 175 180 185 178 177 181 186 198 207 199 200 202 206 217 222 220 217
232 239 239 344 330 37 66 56 76 92 98 100 96 99 99 96 101 105 106 106 107 106 102 100 110 126 145 156 168 156 153 154 155 156 209 195 165 186 197 200 205 208 203 199
225 210 62 54 44 45 58 71 81 97 104 109 109 105 100 93 92 90 91 89 94 97 94 87 86 96 108 89 70 91 113 122 113 110 79 70 113 139 163 194 205 201 178 179
147 110 77 64 61 55 56 67 76 98 106 106 109 106 100 93 89 87 89 87 87 88 88 79 71 72 76 77 83 91 95 98 100 98 83 67 59 62 70 17 232 189 162 157
172 120 85 61 56 65 77 84 83 81 95 100 103 103 100 94 90 88 86 85 84 82 81 78 70 64 61 66 84 95 93 90 97 101 98 80 70 49 52 49 43 71 84 93
175 98 80 64 30 59 78 81 86 85 83 89 96 97 95 89 86 86 87 84 84 80 75 74 71 62 50 53 75 93 101 98 100 103 104 109 105 85 56 57 59 64 65 76
48 79 87 74 57 74 83 82 83 84 88 92 91 91 89 86 82 80 82 80 80 79 75 74 73 66 54 49 69 86 96 98 103 107 113 121 119 112 102 74 65 63 61 69
54 100 101 89 81 83 88 88 89 89 91 91 93 91 89 85 82 77 75 76 77 76 73 71 73 67 55 56 67 78 90 91 97 104 105 107 107 106 105 103 92 77 63 64
100 104 109 98 91 93 94 93 93 92 95 93 92 90 89 87 83 79 75 75 76 73 68 65 63 58 51 59 65 67 76 82 84 90 90 88 95 100 99 96 92 91 87 75
83 101 107 104 101 99 98 97 97 97 97 97 94 93 91 88 86 82 75 73 75 71 64 62 60 52 51 64 76 76 72 71 75 81 86 88 87 88 89 91 88 86 82 78
104 102 104 107 104 100 97 98 100 99 94 97 98 97 94 89 84 80 76 74 73 69 62 59 57 56 58 65 74 80 80 78 78 77 72 72 75 78 78 80 83 80 71 57
94 102 103 102 102 101 96 96 96 96 95 99 100 97 94 90 86 83 81 80 74 64 55 52 52 57 59 59 65 75 79 78 76 75 74 73 73 72 73 78 82 82 77 68
94 96 98 96 96 97 96 95 95 94 95 96 95 92 90 90 86 82 77 73 67 61 50 49 54 62 64 61 69 76 78 80 79 76 76 74 75 75 75 77 79 78 76 75
91 88 88 88 86 89 92 94 98 96 94 95 95 93 93 91 88 84 76 68 59 57 56 51 56 60 63 63 71 82 83 84 84 83 80 78 78 77 77 79 78 77 75 73
97 93 90 88 90 88 91 97 98 97 95 93 91 91 91 87 84 81 80 73 57 51 62 62 56 55 61 67 79 84 87 87 86 84 83 82 81 80 79 79 79 78 76 74
105 101 97 95 96 95 91 90 95 97 95 92 91 93 92 89 85 78 72 71 64 50 58 60 53 41 38 68 81 83 85 86 86 84 84 86 86 86 85 84 83 81 78 76
106 104 101 100 99 99 94 90 91 92 90 88 85 85 83 80 78 80 76 66 65 59 60 53 37 34 41 69 79 82 81 82 84 85 86 86 86 86 86 85 81 77 73 71
102 101 101 102 101 99 96 93 90 88 89 87 84 83 85 86 84 80 83 79 70 73 68 48 37 41 54 67 71 73 75 76 78 79 81 83 83 81 78 78 76 75 72 68
100 101 103 104 101 100 102 103 99 94 91 89 88 84 81 81 86 86 85 83 83 82 80 64 47 47 63 69 71 73 72 69 73 78 77 76 76 76 74 73 73 73 70 67
103 103 100 96 98 101 101 100 98 96 94 93 89 85 87 89 92 92 92 91 86 80 77 74 67 62 66 68 69 70 72 73 72 73 75 75 73 73 71 70 69 66 64 64
102 101 100 97 94 93 94 93 97 97 95 95 94 91 93 96 94 91 88 86 83 77 73 73 71 66 66 67 68 67 68 68 67 66 68 69 71 71 68 66 62 61 61 59